Regional Weather Roundup
Issued by NWS

Home | Current Version | Previous Version | Text Only | Print | Product List | Glossary On
Versions: 1 2 3 4 5 6 7 8 9 10 11 12 13 14 15 16 17 18 19 20 21 22 23 24 25 26 27 28 29 30 31 32 33 34 35 36 37 38 39 40 41 42 43 44 45 46 47 48 49 50
000
ASUS46 KSTO 230109
RWRCA

NORTHERN AND CENTRAL CA REGIONAL WEATHER ROUNDUP
NATIONAL WEATHER SERVICE SACRAMENTO CA
500 PM PST MON JAN 22 2018

NOTE: FAIR INDICATES FEW OR NO CLOUDS BELOW 12,000 FEET WITH NO
SIGNIFICANT WEATHER AND/OR OBSTRUCTIONS TO VISIBILITY.

CAZ001-003-230200-
NORTHWEST AREA

CITY           SKY/WX    TMP DP  RH WIND       PRES   REMARKS
CRESCENT CITY  CLEAR     52  43  71 CALM      30.30F
ARCATA         NOT AVBL
SHELTER COVE   NOT AVBL
UKIAH          CLOUDY    52  43  71 CALM      30.26F
$$

CAZ006-505>513-230200-
BAY AREA

CITY           SKY/WX    TMP DP  RH WIND       PRES   REMARKS
SANTA ROSA     MOCLDY    56  47  71 E8        30.27S
SAN RAFAEL     N/A       57  MM  MM MISG
NAPA           MOCLDY    52  46  80 E10       30.31R
CONCORD        CLOUDY    52  48  86 NE7       30.33R
OAKLAND CITY   N/A      MM  MM  MM MISG
OAKLAND        MOCLDY    55  48  77 N7        30.31R
SAN FRAN CITY  N/A       54  MM  68 MISG
SAN FRAN ARPT  PTCLDY    54  44  69 W13       30.30S
LIVERMORE      CLOUDY    52  48  86 E7        30.29S
HAYWARD        PTCLDY    55  44  66 W9        30.30R
REDWOOD CITY   N/A       57  MM  61 MISG
MOFFETT ARPT   CLOUDY    55  44  66 NW7       30.31R
SAN JOSE ARPT  MOCLDY    57  42  57 NW12      30.30S
$$
CAZ034-037-514>518-230200-
CENTRAL COAST

CITY           SKY/WX    TMP DP  RH WIND       PRES   REMARKS
WATSONVILLE    CLEAR     54  54 100 CALM      30.30R
SALINAS        CLEAR     55  48  77 W10       30.30R
MONTEREY       PTCLDY    55  46  71 W7        30.31R
PT PIEDRAS BLS NOT AVBL
SAN LUIS OBISP PTCLDY    58  52  80 NW15      30.27R
SANTA MARIA    CLEAR     58  52  80 NW16      30.25R
$$
CAZ015-016-230200-
NORTHERN SACRAMENTO VALLEY

CITY           SKY/WX    TMP DP  RH WIND       PRES   REMARKS
REDDING        MOCLDY    50  46  86 CALM      30.32F
RED BLUFF      CLOUDY    51  45  79 CALM      30.33F
OROVILLE       CLOUDY    50  48  93 W6        30.35S
$$
CAZ016>018-230200-
SOUTHERN SACRAMENTO VALLEY

CITY           SKY/WX    TMP DP  RH WIND       PRES   REMARKS
AUBURN         CLOUDY    46  46 100 CALM      30.30F
BEALE AFB      CLOUDY    50  48  93 N5        30.32S
LINCOLN        CLOUDY   N/A N/A N/A NW6       30.32S
MARYSVILLE     CLOUDY    49  47  93 N5        30.34S
SAC INTL ARPT  CLOUDY    49  48  97 N6        30.33S
MATHER AIRPORT CLOUDY    50  48  93 N7        30.32S
DOWNTOWN SAC   N/A       50  MM  MM MISG
SAC EXEC ARPT  CLOUDY    49  49 100 N9        30.33S FOG
VACAVILLE      CLOUDY    51  47  86 N8        30.34S
TRAVIS AFB     CLOUDY    50  50  98 N12       30.31S
$$
CAZ019>021-230200-
SAN JOAQUIN VALLEY

CITY           SKY/WX    TMP DP  RH WIND       PRES   REMARKS
STOCKTON       CLOUDY    56  46  69 CALM      30.30S
MODESTO        CLOUDY    54  47  77 NW6       30.30S
MERCED         MOCLDY    55  46  71 N6        30.28S
LEMOORE        PTCLDY    55  40  56 SE7       30.29S
FRESNO         PTCLDY    57  40  52 SE6       30.28F
HANFORD        CLEAR     57  38  48 CALM      30.29S
PORTERVILLE    PTCLDY    59  38  45 NW3       30.30R
BAKERSFIELD    PTCLDY    59  34  39 SW3       30.27S
$$
CAZ011-012-071-230200-
NORTHERN MOUNTAINS

CITY           SKY/WX    TMP DP  RH WIND       PRES   REMARKS
YREKA          PTCLDY    44  31  60 S3        30.30S
MOUNT SHASTA   PTCLDY    37  33  85 CALM      30.28S
ALTURAS        CLOUDY    36  30  79 SE3       30.29S
$$
CAZ011-012-071-230200-
SIERRA NEVADA MTNS

CITY           SKY/WX    TMP DP  RH WIND       PRES   REMARKS
BLUE CANYON    FOG       36  36 100 CALM      30.27F VSB 1/4
TRUCKEE        PTCLDY    37  30  75 W5        30.27R WCI  34
TAHOE VLY ARPT PTCLDY    35  29  78 S5        30.26R WCI  31
MAMMOTH LAKES  FAIR      37  10  34 E6        30.24R WCI  32
$$



USA.gov is the U.S. government's official web portal to all federal, state and local government web resources and services.